Temp
61 61 61 61 61 61 62 62 61 61 61 62 62 61 61 61 60 53 49 56 58 64 62 54 53 52 51 46 47 45 31 26 32 35 39 48 46 51 54 51 53 58 52 57 63
60 61 61 61 61 61 61 61 61 61 61 61 61 61 61 61 50 48 60 64 64 64 53 49 47 48 43 43 44 38 28 33 40 40 40 45 45 47 47 48 48 52 57 59 62
60 60 60 60 61 61 61 61 61 61 61 61 61 61 60 56 45 49 63 64 64 62 54 51 50 47 40 42 41 39 32 39 41 44 43 43 43 46 44 43 47 48 52 57 60
59 59 59 60 60 61 61 61 61 61 61 61 61 60 60 50 36 53 63 64 64 58 53 50 46 40 37 36 42 34 40 41 43 45 42 41 44 43 44 46 52 52 53 54 58
59 59 59 59 60 60 61 60 60 60 60 60 60 60 51 41 43 58 63 61 57 54 49 46 42 39 33 37 38 36 39 42 43 43 42 44 41 42 44 48 52 53 54 54 57
58 58 58 59 59 60 60 60 60 60 60 60 60 58 45 37 55 58 56 55 54 51 48 47 44 45 38 37 36 39 39 39 41 41 41 39 40 39 44 48 47 50 51 54 57
58 58 58 58 59 59 59 60 60 60 60 60 59 54 43 43 54 55 55 53 53 51 46 48 48 43 40 35 42 40 33 36 38 40 38 41 35 36 43 47 47 45 48 53 57
58 57 57 58 58 58 59 59 59 60 59 59 59 48 38 54 51 53 54 51 53 53 49 50 49 43 39 41 38 33 32 25 36 38 40 38 28 39 44 42 44 46 43 49 56
57 57 57 58 57 58 58 59 58 60 60 59 47 43 39 57 49 53 50 49 49 49 49 54 46 39 38 31 28 30 23 27 31 39 37 35 29 39 44 44 42 44 43 45 53
57 57 57 57 57 58 58 57 57 55 53 55 52 38 45 44 48 50 51 50 45 44 43 41 37 31 31 29 18 26 26 28 27 35 36 33 32 39 42 43 42 42 41 43 46
57 57 57 57 57 58 50 44 39 40 39 35 37 38 41 48 49 48 50 46 44 40 31 35 28 25 29 34 33 30 27 26 30 37 34 31 32 36 41 39 40 43 40 42 45
57 57 57 57 57 56 46 38 39 39 32 40 41 41 44 46 39 45 50 40 37 31 32 30 26 34 37 37 32 28 26 26 31 37 34 30 30 36 39 39 40 42 44 41 44
56 56 56 56 56 47 42 40 46 48 30 37 43 42 44 44 38 40 45 40 33 30 31 26 31 38 35 33 28 27 25 26 26 32 33 30 26 30 37 40 43 44 47 45 44
56 56 56 56 49 42 39 45 46 48 22 35 39 42 44 41 35 47 47 40 35 30 31 28 35 34 31 29 30 21 31 30 27 25 19 31 16 27 32 34 38 41 44 45 43
55 55 55 54 42 41 43 44 44 41 13 38 38 48 43 37 39 39 45 40 30 31 26 26 30 28 24 29 31 25 32 28 28 24 24 25 20 24 34 32 36 39 42 44 43
55 55 55 47 42 42 44 41 39 22 14 31 36 34 33 34 35 37 37 40 38 32 34 31 36 31 30 34 33 33 28 28 28 25 15 25 21 21 25 31 34 38 41 44 43
55 55 50 48 39 43 41 36 22 15 31 28 28 32 30 29 31 31 29 27 24 13 20 26 28 34 34 25 33 30 22 9 8 8 11 28 23 27 34 33 34 35 40 42 43
55 52 48 47 42 41 37 29 15 12 13 31 30 29 25 28 29 28 26 23 29 26 20 12 14 26 30 27 25 27 25 16 10 8 15 29 19 27 34 34 32 34 39 43 42
52 42 42 44 43 39 32 16 16 16 29 27 27 17 17 26 25 24 22 22 28 27 18 16 16 33 33 34 31 24 21 27 18 20 17 23 30 34 30 27 28 33 38 39 41
40 39 40 43 41 36 25 23 14 30 31 27 14 19 8 16 19 20 21 28 28 31 30 23 15 31 34 31 33 28 31 17 19 7 7 20 20 15 17 19 24 36 37 39 41
38 33 42 41 38 30 18 9 21 32 32 23 15 16 17 18 21 18 22 29 31 29 31 27 21 24 29 18 20 22 18 20 20 18 13 14 15 21 18 19 28 37 37 38 39
34 28 41 40 28 7 14 13 33 30 32 31 28 25 15 16 15 20 23 28 35 29 24 28 22 15 19 27 30 27 17 19 11 14 16 18 16 22 19 20 34 38 40 40 41
28 29 40 39 20 12 17 25 30 29 30 30 28 28 20 15 14 18 26 34 35 29 25 27 22 12 17 24 28 20 20 20 21 20 13 8 11 21 18 19 27 33 35 36 36
31 26 29 28 24 24 18 18 19 32 30 32 31 30 19 10 21 16 26 32 34 32 34 30 23 18 13 15 19 15 18 19 17 5 10 11 10 15 14 15 20 28 31 32 33
28 22 19 19 20 26 25 24 23 21 30 31 27 20 18 10 10 10 24 28 31 34 30 26 15 20 18 20 20 18 17 16 12 11 9 11 11 14 13 14 17 24 27 27 29
28 26 21 14 26 27 28 23 27 28 28 24 18 18 18 14 18 16 25 26 24 28 27 27 13 14 14 20 21 20 19 19 16 13 13 15 14 17 17 16 15 18 21 22 24
31 32 31 25 24 21 24 28 29 29 31 32 29 24 16 20 27 27 29 30 28 24 24 23 22 11 6 18 22 15 17 17 16 15 13 7 12 17 14 12 12 14 16 17 20
MSLP
1021.65 1021.21 1020.98 1021.06 1020.95 1020.43 1020.22 1019.94 1019.70 1019.35 1019.07 1018.71 1018.34 1017.94 1017.54 1017.21 1016.95 1016.62 1016.40 1016.35 1016.17 1015.85 1015.61 1015.50 1015.27 1015.14 1014.92 1015.02 1015.09 1015.42 1016.21 1015.50 1014.65 1013.90 1012.90 1012.00 1011.80 1010.80 1010.19 1009.91 1009.29 1008.52 1008.39 1008.01 1006.93
1021.84 1021.40 1021.09 1021.06 1020.90 1020.37 1020.02 1019.88 1019.47 1019.04 1018.84 1018.54 1018.26 1017.90 1017.52 1017.30 1017.27 1016.87 1016.38 1016.12 1016.04 1015.80 1015.82 1015.80 1015.72 1015.54 1015.52 1015.48 1015.49 1015.89 1016.23 1015.45 1014.73 1014.31 1013.65 1012.89 1012.27 1011.47 1010.94 1010.35 1009.71 1009.10 1008.38 1007.96 1007.18
1022.02 1021.61 1021.19 1021.15 1020.95 1020.48 1020.09 1019.81 1019.38 1018.87 1018.59 1018.30 1017.98 1017.65 1017.28 1017.20 1017.32 1016.68 1016.29 1016.11 1015.95 1015.78 1015.84 1015.87 1015.96 1015.95 1015.93 1015.74 1015.73 1015.71 1015.55 1014.96 1014.38 1013.99 1013.72 1013.44 1012.80 1012.22 1011.49 1010.69 1010.12 1009.55 1008.83 1008.31 1007.82
1022.09 1021.70 1021.29 1021.20 1020.90 1020.44 1019.93 1019.63 1019.10 1018.66 1018.34 1018.12 1017.84 1017.47 1017.12 1017.14 1017.40 1016.46 1016.22 1016.05 1015.82 1015.73 1015.80 1015.88 1015.95 1016.12 1016.26 1016.16 1015.91 1015.86 1015.29 1015.10 1014.30 1013.93 1013.87 1013.47 1012.96 1012.29 1011.77 1010.74 1010.12 1009.56 1009.00 1008.49 1008.02
1022.22 1021.90 1021.45 1021.16 1020.69 1020.19 1019.68 1019.24 1018.79 1018.47 1018.08 1017.84 1017.75 1017.50 1017.31 1017.39 1017.00 1016.28 1016.17 1016.07 1015.99 1015.81 1015.80 1015.91 1016.11 1016.20 1016.33 1016.34 1016.21 1015.91 1015.21 1014.70 1014.18 1013.96 1013.72 1013.36 1012.87 1012.17 1011.02 1010.43 1009.83 1009.35 1008.96 1008.36 1007.92
1022.26 1021.84 1021.43 1021.18 1020.62 1020.04 1019.47 1018.90 1018.42 1018.02 1017.85 1017.81 1017.67 1017.67 1017.78 1017.35 1016.18 1016.22 1016.28 1016.20 1015.90 1015.70 1015.54 1015.74 1015.99 1016.12 1016.25 1016.30 1016.33 1015.58 1015.24 1014.47 1014.05 1013.68 1013.61 1013.22 1012.24 1012.16 1010.88 1010.17 1009.64 1009.27 1008.83 1008.13 1007.57
1022.34 1021.89 1021.61 1021.20 1020.53 1019.84 1019.10 1018.67 1018.16 1017.56 1017.58 1017.74 1017.67 1017.82 1017.99 1017.04 1016.25 1016.19 1016.18 1015.91 1015.63 1015.49 1015.49 1015.51 1015.67 1016.09 1016.18 1016.23 1015.75 1015.65 1015.16 1014.51 1013.65 1013.08 1012.75 1012.42 1011.95 1011.04 1010.52 1009.84 1009.24 1008.88 1008.55 1007.83 1007.18
1022.44 1021.99 1021.67 1021.08 1020.43 1019.72 1018.95 1018.48 1017.80 1017.29 1017.36 1017.58 1017.68 1018.13 1017.75 1016.43 1016.25 1016.27 1015.91 1015.74 1015.31 1015.08 1015.11 1015.00 1015.21 1015.93 1016.09 1015.76 1015.62 1015.70 1015.38 1014.00 1012.87 1012.65 1012.19 1012.09 1011.22 1010.56 1009.99 1009.75 1009.17 1008.72 1008.36 1007.72 1006.85
1022.44 1021.98 1021.66 1021.08 1020.44 1019.61 1018.75 1018.31 1017.95 1017.62 1017.59 1017.60 1018.03 1018.24 1017.36 1016.17 1016.24 1015.90 1015.85 1015.59 1015.14 1014.88 1014.84 1014.91 1015.39 1015.72 1015.87 1016.05 1015.82 1015.45 1014.46 1013.64 1012.65 1012.14 1011.89 1011.53 1010.72 1009.96 1009.45 1009.27 1008.82 1008.20 1007.97 1007.40 1006.65
1022.42 1022.00 1021.54 1021.06 1020.38 1019.51 1018.73 1018.12 1018.09 1017.69 1017.86 1017.70 1018.08 1018.72 1017.35 1017.09 1016.62 1016.08 1015.49 1015.32 1015.28 1015.20 1015.20 1015.27 1015.54 1015.77 1015.87 1015.96 1015.17 1014.63 1014.14 1013.33 1012.34 1011.93 1011.65 1011.18 1010.67 1009.75 1009.26 1009.00 1008.39 1007.82 1007.67 1007.18 1006.46
1022.34 1021.95 1021.47 1020.95 1020.30 1019.87 1019.26 1018.63 1019.43 1019.12 1019.26 1019.68 1019.53 1019.26 1018.27 1017.37 1016.62 1016.07 1015.38 1015.25 1015.43 1015.83 1016.21 1015.91 1015.99 1015.77 1015.52 1015.23 1014.84 1014.52 1013.93 1012.77 1011.94 1011.67 1011.38 1010.80 1009.43 1008.99 1008.51 1008.40 1007.92 1007.17 1007.16 1006.76 1006.10
1022.21 1021.83 1021.42 1020.93 1020.49 1020.06 1020.46 1021.46 1022.25 1022.66 1021.39 1019.90 1019.58 1019.40 1018.43 1017.76 1017.12 1016.12 1015.60 1015.89 1015.99 1016.24 1016.49 1016.58 1015.74 1014.97 1014.79 1014.64 1014.55 1014.22 1013.59 1012.13 1011.24 1011.00 1010.69 1009.80 1008.24 1008.09 1007.69 1007.24 1006.96 1006.52 1006.12 1006.19 1005.82
1022.34 1021.93 1021.41 1020.73 1020.33 1020.88 1021.79 1022.36 1022.19 1022.08 1022.22 1019.94 1019.09 1018.72 1018.03 1017.70 1017.36 1016.52 1016.26 1016.29 1016.43 1016.58 1016.56 1016.63 1015.15 1014.81 1014.67 1014.25 1014.21 1013.43 1013.06 1012.02 1011.43 1010.68 1009.97 1009.45 1007.49 1007.21 1005.79 1006.04 1005.70 1005.27 1004.89 1005.28 1005.34
1022.35 1022.02 1021.59 1020.84 1020.94 1021.49 1022.11 1022.31 1022.05 1021.83 1022.15 1020.34 1018.84 1018.27 1018.00 1017.37 1017.46 1016.79 1016.75 1016.90 1016.87 1016.97 1016.59 1016.22 1014.96 1014.98 1014.52 1014.29 1014.08 1012.96 1012.12 1011.87 1011.52 1011.02 1009.76 1008.88 1006.63 1005.88 1005.28 1004.83 1004.65 1004.25 1004.08 1004.29 1004.67
1022.33 1022.01 1021.72 1021.15 1021.87 1022.14 1022.58 1022.11 1021.86 1022.06 1022.20 1020.24 1019.08 1018.29 1018.70 1018.78 1018.76 1017.45 1017.33 1017.08 1017.52 1017.61 1017.73 1016.58 1015.32 1014.97 1014.85 1014.19 1014.11 1012.70 1012.19 1011.84 1011.40 1010.79 1010.16 1008.76 1008.35 1005.00 1004.56 1004.23 1003.70 1003.35 1003.13 1003.49 1003.94
1022.25 1022.02 1021.84 1021.79 1022.25 1022.34 1022.22 1022.00 1022.24 1022.97 1022.59 1021.15 1020.17 1019.94 1019.93 1019.53 1019.56 1019.09 1018.57 1018.40 1018.15 1017.92 1017.49 1016.77 1015.70 1015.41 1015.12 1014.01 1013.48 1012.91 1012.18 1010.94 1010.51 1010.39 1009.66 1007.55 1007.94 1005.08 1004.86 1004.59 1004.03 1003.54 1003.23 1003.09 1003.37
1022.13 1021.98 1021.85 1021.96 1022.51 1022.08 1022.21 1022.31 1023.52 1024.66 1024.16 1022.87 1022.24 1022.06 1021.94 1021.30 1020.72 1020.58 1020.23 1020.11 1020.17 1019.51 1018.75 1017.10 1016.09 1015.59 1015.20 1014.31 1013.05 1012.95 1012.43 1011.85 1011.07 1010.35 1008.97 1007.43 1007.50 1005.36 1005.61 1006.11 1005.96 1004.92 1003.72 1003.01 1003.15
1022.01 1021.84 1021.96 1022.14 1022.37 1022.20 1022.36 1022.99 1025.62 1026.42 1025.88 1024.66 1024.19 1023.52 1023.36 1022.84 1022.13 1021.82 1021.43 1021.26 1021.17 1021.28 1020.46 1019.62 1017.20 1016.38 1015.74 1015.87 1014.66 1013.47 1012.99 1013.42 1011.92 1010.57 1009.01 1007.81 1007.04 1006.58 1006.86 1006.60 1005.44 1004.15 1003.69 1002.86 1002.84
1022.05 1022.16 1022.07 1022.09 1022.00 1022.09 1022.85 1024.96 1027.07 1027.05 1026.46 1025.94 1025.24 1025.08 1024.98 1024.40 1024.01 1023.27 1022.42 1022.02 1021.80 1021.91 1022.02 1020.64 1018.68 1016.71 1016.21 1015.42 1015.24 1013.96 1013.69 1013.42 1012.25 1010.19 1009.60 1007.90 1007.25 1006.88 1008.12 1006.70 1005.91 1003.19 1003.02 1002.71 1002.75
1022.75 1022.73 1022.34 1022.12 1022.07 1022.48 1024.05 1027.29 1027.52 1026.86 1026.43 1026.52 1026.92 1026.74 1026.93 1025.85 1025.20 1024.41 1023.27 1022.12 1021.81 1021.88 1022.11 1021.20 1019.63 1017.24 1015.90 1015.70 1015.56 1015.50 1015.10 1013.79 1012.51 1012.09 1010.46 1008.97 1009.60 1011.58 1010.37 1008.85 1005.66 1002.86 1002.69 1002.83 1002.86
1023.02 1023.01 1022.29 1022.12 1022.34 1023.45 1027.10 1028.33 1027.48 1026.58 1026.45 1026.69 1027.01 1027.20 1027.53 1027.42 1026.40 1025.39 1023.95 1022.26 1021.95 1021.82 1021.59 1021.22 1020.82 1018.12 1017.31 1017.37 1017.23 1016.41 1016.37 1015.56 1014.78 1013.72 1012.49 1011.51 1012.53 1013.97 1013.57 1011.32 1007.38 1004.76 1003.89 1003.85 1003.77
1023.39 1023.77 1022.57 1022.19 1023.87 1026.96 1028.62 1028.13 1027.44 1026.52 1026.16 1026.16 1026.66 1027.16 1027.64 1027.82 1027.16 1026.01 1024.48 1022.95 1022.28 1022.55 1021.56 1021.47 1020.91 1019.70 1018.88 1018.51 1018.34 1018.44 1018.29 1017.26 1016.50 1014.67 1014.41 1013.65 1014.55 1015.35 1015.14 1013.02 1008.89 1006.90 1006.19 1005.63 1005.49
1024.24 1024.22 1023.15 1023.23 1025.79 1028.22 1028.45 1028.22 1027.43 1026.52 1026.14 1026.25 1026.46 1026.92 1027.94 1028.28 1028.11 1026.50 1024.61 1022.68 1022.65 1022.35 1022.08 1021.72 1021.20 1020.71 1019.12 1019.20 1019.07 1019.15 1019.33 1018.41 1016.70 1016.21 1017.14 1017.24 1017.87 1017.50 1016.94 1014.41 1012.18 1010.13 1008.37 1007.61 1008.11
1024.70 1025.40 1025.12 1025.88 1027.76 1027.89 1028.59 1028.53 1027.54 1026.31 1025.99 1026.09 1026.42 1027.01 1027.90 1028.29 1027.88 1026.74 1025.03 1022.89 1022.49 1022.47 1022.34 1022.16 1022.16 1021.88 1021.70 1021.80 1021.66 1020.83 1020.49 1019.91 1018.95 1019.42 1019.92 1020.20 1020.45 1019.41 1018.62 1017.38 1015.68 1013.45 1011.36 1010.86 1011.03
1025.43 1026.87 1027.78 1028.13 1028.40 1028.31 1028.28 1028.25 1027.44 1026.54 1026.02 1025.99 1026.33 1027.24 1028.18 1028.84 1028.22 1027.19 1025.52 1023.83 1022.88 1022.77 1022.54 1022.64 1022.79 1022.42 1021.95 1021.99 1021.87 1022.17 1021.96 1021.73 1021.38 1022.25 1021.72 1022.03 1022.15 1022.05 1021.77 1020.80 1018.86 1017.08 1015.11 1013.91 1013.87
1025.04 1026.41 1028.06 1028.51 1028.24 1027.75 1027.92 1027.63 1027.10 1026.39 1026.26 1026.22 1026.54 1026.75 1027.62 1028.38 1027.83 1027.20 1026.37 1025.27 1024.37 1023.33 1023.20 1023.17 1023.32 1023.26 1022.75 1022.30 1022.19 1022.25 1022.66 1022.68 1022.94 1023.45 1023.31 1023.19 1023.00 1023.88 1023.88 1022.97 1020.80 1019.23 1017.89 1017.21 1017.32
1024.80 1025.41 1025.67 1028.19 1028.29 1028.03 1027.52 1027.00 1026.50 1026.46 1025.78 1025.75 1026.08 1026.43 1026.85 1026.82 1026.65 1026.36 1026.22 1025.71 1025.29 1025.19 1024.23 1023.83 1023.99 1024.20 1023.61 1022.79 1022.00 1022.10 1023.48 1024.28 1024.96 1025.51 1025.40 1025.11 1025.90 1025.24 1024.86 1023.85 1023.19 1022.58 1021.69 1021.08 1020.52
Wind_Speed
8 9 9 10 11 11 12 12 13 13 14 14 14 15 17 18 19 5 3 1 3 8 7 5 5 6 2 1 0 4 1 3 5 3 6 8 9 5 6 5 5 5 1 5 14
8 9 10 11 12 12 12 13 14 14 14 15 16 15 16 18 3 3 1 2 3 6 4 4 6 7 4 2 2 3 2 5 5 4 7 9 8 10 5 9 5 11 5 8 8
9 11 12 13 14 15 15 15 15 15 14 15 16 15 14 9 2 1 2 3 6 6 2 1 3 3 2 1 3 3 7 5 6 8 3 5 9 4 6 8 3 6 10 9 4
10 11 12 13 15 17 17 17 17 15 15 15 16 13 11 2 2 2 5 6 6 4 3 3 4 4 2 3 2 5 6 6 7 5 4 6 4 9 9 11 8 11 8 5 6
11 12 14 14 16 18 19 18 17 15 15 14 11 8 4 5 4 4 5 7 6 3 2 1 3 1 2 4 5 10 12 9 7 12 9 10 13 12 16 12 13 9 9 12 10
10 12 14 16 17 19 20 18 18 16 14 11 7 4 4 3 1 3 5 6 6 4 4 2 4 3 5 5 5 4 7 14 11 17 10 14 19 5 10 10 10 9 10 13 14
11 13 15 17 19 20 21 21 22 18 10 4 3 3 3 7 2 6 5 4 4 3 4 3 3 4 1 5 8 7 13 15 17 13 9 7 10 13 9 12 17 10 10 13 15
12 14 16 18 19 21 22 22 20 9 4 4 6 3 5 4 3 6 3 7 6 5 5 8 6 5 5 6 3 9 7 9 3 3 6 7 13 9 10 9 15 13 9 11 15
12 14 16 19 19 21 22 22 9 6 6 5 4 3 7 4 4 6 3 5 5 4 4 5 4 7 2 5 7 7 12 14 15 7 7 9 7 7 8 12 14 12 8 9 12
12 14 17 18 19 18 21 12 7 5 6 1 2 2 3 5 7 5 5 5 3 5 6 3 1 2 2 4 10 12 12 12 15 4 7 16 17 17 12 14 14 13 7 8 8
13 15 17 18 18 14 12 5 9 8 9 2 4 4 7 8 6 5 6 5 2 4 4 4 3 8 11 12 17 18 19 20 19 16 18 18 21 19 16 9 14 17 8 9 9
13 16 18 18 11 8 5 7 3 4 8 3 5 6 7 5 6 8 5 6 5 10 4 4 11 12 7 9 14 16 21 23 20 16 13 15 21 16 14 12 12 16 16 9 6
13 16 19 19 3 7 7 4 5 1 1 8 5 4 6 4 4 8 7 5 4 5 8 6 13 15 12 10 16 17 17 20 20 18 16 15 21 18 17 18 18 19 19 8 10
13 15 18 19 5 0 3 5 3 4 5 6 5 2 7 5 2 7 5 4 4 6 7 6 5 14 13 14 11 13 5 6 12 9 6 4 11 8 6 13 12 18 17 12 10
12 15 16 10 2 3 4 5 1 4 6 11 7 3 10 6 7 4 9 6 4 8 3 8 14 15 7 7 9 10 9 12 15 15 10 13 7 5 8 14 17 17 17 12 10
11 13 13 4 2 1 4 0 4 9 6 8 5 9 11 5 4 9 6 7 3 6 4 15 5 2 3 17 15 18 17 16 12 7 6 11 10 5 2 3 6 6 9 11 11
11 13 4 2 3 5 2 3 8 10 6 12 7 10 9 7 8 8 6 7 7 8 15 12 6 2 4 9 3 7 5 5 5 2 6 3 9 11 13 14 12 15 14 9 9
12 7 3 1 4 3 2 8 11 4 6 4 6 11 6 9 4 10 7 7 5 4 8 5 10 7 5 4 8 12 3 3 8 3 3 5 5 1 19 25 25 22 17 9 8
9 3 2 2 4 2 6 9 9 7 4 7 10 6 7 5 1 8 5 3 3 6 5 5 7 4 8 7 5 11 10 13 8 15 6 4 2 5 30 27 22 21 11 8 9
2 3 3 7 3 4 8 3 3 3 3 4 1 3 3 7 8 7 6 2 5 7 7 3 8 4 11 5 3 11 12 7 3 5 6 3 7 11 32 34 36 5 6 7 8
4 5 3 6 4 7 5 7 5 5 3 4 4 3 4 5 3 4 5 7 6 8 11 4 3 7 6 6 13 9 11 5 5 3 4 6 6 15 26 28 25 13 8 6 7
2 3 3 3 7 2 2 6 4 3 2 2 3 3 4 3 5 3 5 3 9 9 9 2 4 5 3 7 6 9 14 6 1 5 4 4 5 24 26 26 20 15 16 19 21
3 2 2 3 4 3 5 4 3 2 3 2 3 4 2 3 5 4 5 5 4 9 4 8 3 6 8 1 11 7 21 17 5 4 11 7 8 19 25 28 26 19 21 23 23
3 3 6 6 0 5 3 4 6 3 3 3 3 3 4 4 4 6 8 7 11 3 10 6 2 3 2 3 8 12 23 21 14 5 7 8 14 25 29 27 24 20 24 25 23
4 2 3 2 4 2 5 1 3 5 3 2 1 2 3 4 5 4 4 9 4 5 7 3 3 4 5 8 1 17 15 20 19 15 7 11 13 21 22 21 19 17 22 26 25
5 5 2 1 2 2 1 3 2 4 2 4 4 4 6 5 7 7 7 3 4 8 6 3 4 4 4 1 0 13 21 17 16 17 8 11 14 19 17 16 20 24 24 25 24
1 1 5 2 1 4 4 3 4 0 3 5 3 2 2 7 9 11 10 12 13 8 5 4 3 4 6 4 4 5 20 12 11 16 8 11 10 15 17 20 25 22 21 21 21
Wind_Direction
15 19 15 2 354 352 347 341 337 338 338 337 338 340 343 341 336 360 55 93 353 342 346 324 358 339 2 21 260 122 270 266 274 269 285 338 342 305 310 254 342 314 37 275 337
12 16 12 360 348 345 341 335 332 333 333 333 335 337 339 343 336 317 238 312 335 333 347 360 334 342 349 305 289 139 190 245 213 314 305 300 294 304 303 303 292 284 313 341 5
9 10 9 356 343 338 335 330 330 332 330 331 331 335 336 354 2 265 252 301 310 354 256 293 285 324 292 308 248 201 210 211 273 283 304 292 305 287 288 287 265 297 306 327 350
5 5 2 349 340 333 330 327 329 327 326 329 330 331 339 56 86 273 237 271 307 335 316 338 347 351 278 259 290 289 252 250 269 258 307 290 265 280 254 260 270 291 286 276 313
2 358 352 343 335 331 329 329 328 323 321 329 341 345 34 30 259 278 250 288 310 287 281 351 329 326 257 290 305 253 272 271 256 289 277 272 260 254 267 272 268 270 287 292 286
358 352 346 338 335 334 329 328 327 315 315 329 340 83 68 59 237 15 306 290 246 249 239 170 238 242 258 243 226 264 283 285 292 287 283 269 267 245 265 277 273 259 266 276 279
350 350 345 337 336 332 328 327 326 312 310 338 32 91 81 222 320 317 282 261 240 224 267 218 213 174 232 284 256 274 290 292 280 277 250 235 264 238 238 262 268 241 241 257 267
348 347 340 336 336 332 327 327 329 344 78 74 81 72 245 247 266 290 281 300 266 239 205 233 215 208 194 250 297 284 270 280 59 331 252 167 264 278 255 253 273 272 248 253 265
345 341 338 337 334 334 326 328 342 42 38 92 66 87 287 315 321 279 270 277 293 283 273 270 131 205 196 249 273 196 266 262 289 232 240 193 255 248 281 283 275 271 251 252 263
342 339 339 338 338 339 329 337 16 39 11 82 81 33 310 313 290 293 267 268 303 331 345 33 229 248 232 193 266 276 261 262 263 250 274 287 272 271 268 268 269 273 244 260 269
341 338 338 338 343 358 348 10 14 354 39 170 281 259 286 289 281 287 306 355 6 65 320 291 271 253 268 250 262 281 276 268 269 279 277 269 269 270 269 249 261 267 236 234 250
338 337 337 337 352 37 33 66 122 201 319 287 247 265 264 256 300 319 12 359 24 310 307 310 275 278 270 291 283 272 275 270 277 267 257 260 260 263 255 245 236 257 267 221 237
339 338 337 336 104 54 79 56 304 203 268 303 245 256 289 310 309 306 10 331 288 296 294 264 265 299 302 285 291 274 267 277 276 294 271 273 273 261 248 245 242 246 249 217 216
338 343 342 336 43 94 75 323 324 120 67 296 330 348 354 294 298 315 20 299 327 297 297 267 274 320 315 302 296 286 255 285 293 288 279 150 288 244 240 232 227 237 239 225 198
336 343 345 25 282 53 305 322 280 63 41 306 316 313 326 54 290 325 344 1 299 292 55 268 306 333 324 285 307 263 301 282 276 275 283 232 266 264 227 245 240 225 231 225 194
333 337 344 19 24 83 315 261 61 39 302 333 341 344 354 351 325 325 355 358 291 309 282 291 287 210 264 298 286 278 292 278 259 244 247 238 190 306 197 282 308 247 238 219 189
330 328 333 76 306 326 325 58 35 94 351 311 330 345 330 322 325 14 344 21 24 356 348 329 313 8 327 319 295 325 293 319 340 352 229 351 181 261 332 356 335 319 293 229 192
328 345 344 96 320 329 62 48 59 242 247 340 332 316 348 355 353 339 345 1 44 15 309 340 328 11 330 338 296 305 340 351 298 266 272 104 244 229 10 343 326 311 284 252 178
335 343 4 324 327 64 66 50 199 210 261 329 318 23 324 338 281 351 341 290 51 29 7 310 274 283 298 313 325 331 323 294 245 255 247 210 351 188 347 326 320 278 243 191 174
30 6 287 327 7 59 69 226 209 228 321 58 60 98 309 310 357 10 321 289 349 46 339 285 293 295 320 15 317 340 345 328 338 337 317 327 71 353 344 330 326 34 158 152 157
46 31 273 349 61 47 107 226 261 241 239 141 217 300 251 299 292 303 281 299 20 340 327 278 234 302 6 9 356 0 355 313 291 253 296 338 94 7 339 329 323 30 39 85 79
95 20 312 16 48 21 113 190 237 279 283 292 179 222 206 315 295 281 284 264 7 338 317 333 285 291 262 282 336 38 357 317 266 340 319 274 74 5 345 337 358 47 71 72 72
97 254 353 63 89 331 314 291 268 260 243 261 277 181 128 249 318 246 280 263 344 327 323 359 335 326 350 331 11 12 3 356 308 336 23 21 338 345 347 357 360 38 59 62 63
81 17 335 47 3 123 77 279 304 268 257 241 275 30 15 344 249 285 296 299 338 358 329 353 300 255 263 125 25 5 13 11 15 45 331 23 351 354 354 358 354 23 52 61 61
35 233 193 298 340 91 96 259 310 331 229 230 357 183 127 315 317 276 282 307 341 26 338 27 294 325 309 151 303 35 12 15 23 8 37 321 25 8 358 349 356 24 47 56 55
130 138 350 144 240 86 100 249 279 299 234 284 154 212 171 202 194 298 345 334 286 329 334 339 288 19 306 38 249 27 21 15 19 7 353 360 38 360 360 5 21 30 36 47 51
145 44 109 310 78 80 217 257 261 25 238 247 249 307 176 233 236 242 256 261 270 306 306 322 310 24 301 302 280 1 15 14 24 28 349 17 327 335 9 20 23 19 30 39 43